219  
FPUS82 KCHS 281025  
OPUCHS  
 
TEST   
..KCHS/KSAV GATEWAY OBSERVATIONS
 
TEST  
NATIONAL WEATHER SERVICE CHARLESTON SC  
500 AM EST MON NOV 28 2022  
 
NOTE: "FAIR" INDICATES FEW OR NO CLOUDS BELOW 12,000 FEET WITH NO  
SIGNIFICANT WEATHER AND/OR OBSTRUCTIONS TO VISIBILITY.  
 
SCZ050-WAZ558-NCZ071-TXZ119-213-PAZ071-DCZ001-FLZ074-172-MI076-  
NYZ176-178-MAZ016-IL014-TNZ027-NJZ106-GAZ044-MD014-281100-  
   
..GATEWAY OBSERVATIONS FOR CHARLESTON INTERNATIONAL
 
 
 
CITY SKY/WX TMP DP RH WIND PRES REMARKS  
CHAS AIRPORT CLEAR 55 46 71 W8 29.90R  
SEATTLE LGT RAIN 39 34 82 W10 29.80S WCI 32  
CHARLOTTE CLEAR 50 43 77 W5 29.81R  
DALLAS DFW CLEAR 41 37 86 S5 29.95S  
DALLAS LOVE CLEAR 40 38 93 CALM 29.97F  
PHILLADELPHIA PTCLDY 50 45 83 SW9 29.56R  
WASH NATIONAL CLOUDY 51 50 96 S6 29.62R  
BALTIMORE MOCLDY 51 49 92 W9 29.60R  
MIAMI PTCLDY 75 73 93 CALM 30.00R  
DETROIT CLOUDY 38 33 82 NW5 29.84R WCI 34  
NEWARK PTCLDY 53 47 79 SW16 29.49F  
LAGUARDIA CLEAR 55 44 66 SW15G23 29.49R  
J F K PTCLDY 49 46 90 SW12 29.51R  
BOSTON LOGAN PTCLDY 52 44 74 SW13 29.33R  
FT. LAUDERDALE PTCLDY 74 73 97 W3 29.98S  
CHICAGO O'HARE PTCLDY 31 27 85 W3 29.88R  
CHICAGO MIDWAY PTCLDY 33 28 81 NW3 29.89R  
HOUSTON BUSH PTCLDY 49 47 93 CALM 29.98S  
HOUSTON HOBBY CLEAR 55 47 74 CALM 29.98R  
NASHVILLE CLOUDY 47 44 90 W3 29.94R  
ATLANTA PTCLDY 49 44 83 W5 29.90S  
LONDON HEATHRW N/A 48 46 93 VRB3 29.77S  
 

 
 
GAZ044-118-TXZ119-213-NCZ071-DCZ001-MDZ014-506-PAZ021-071-NJZ106-  
NYZ176-178-MAZ106-OHZ011-021-055-MIZ076-KYZ091-ILZ014-INZ047-  
MNZ060-ONZ431-281100-  
   
..GATEWAY OBSERVATIONS FOR SAVANNAH INTERNATIONAL
 
 
 
CITY SKY/WX TMP DP RH WIND PRES REMARKS  
SAVANNAH ARPT CLEAR 54 46 74 W8 29.94S  
ATLANTA PTCLDY 49 44 83 W5 29.90S  
CHARLOTTE CLEAR 50 43 77 W5 29.81R  
DALLAS DFW CLEAR 41 37 86 S5 29.95S  
HOUSTON BUSH PTCLDY 49 47 93 CALM 29.98S  
WASH NATIONAL CLOUDY 51 50 96 S6 29.62R  
WASH DULLES CLOUDY 50 49 96 W6 29.62R  
BALTIMORE MOCLDY 51 49 92 W9 29.60R  
PHILADELPHIA PTCLDY 50 45 83 SW9 29.56R  
NEWARK PTCLDY 53 47 79 SW16 29.49F  
LAGUARDIA CLEAR 55 44 66 SW15G23 29.49R  
J F K PTCLDY 49 46 90 SW12 29.51R  
BOSTON PTCLDY 52 44 74 SW13 29.33R  
PITTSBURG DRIZZLE 41 38 89 W10 29.75R  
AKRON CLOUDY 42 37 82 NW9 29.78R  
CLEVELAND CLOUDY 42 36 79 NW13 29.79R  
CINCINNATI CLOUDY 42 41 96 W6 29.85R FOG  
COLUMBUS CLOUDY 40 38 91 CALM 29.83R  
DETROIT CLOUDY 38 33 82 NW5 29.84R WCI 34  
CHICAGO O'HARE PTCLDY 31 27 85 W3 29.88R  
MINNEAPOLIS MOCLDY 26 22 84 SE6 29.80F WCI 19  
INDIANAPOLIS CLOUDY 41 38 89 NW3 29.88R  
TORONTO CANADA MOCLDY 36 34 93 N15 29.72R WCI 26  
 

 
 
 
CLICK HERE TO GO TO PREVIOUS BULLETINS.

The Nexlab SC Page
The Nexlab GA Page Main Text Page